Torna al catalogo

GEESAT 1-08

AttivoScienzaLEO
NORAD 52792·PAYLOAD·🇨🇳 China

Lanciato Jun 2, 2022 da Xichang Satellite Launch Center

Loading…

Prossimi Passaggi (prossime 24 ore)

TLE

AggiornatoSource: Space-Track

Epoca: Sep 14, 2026, 13:15 UTC

1 52792U 22058H   26257.55254871  .00001115  00000-0  16844-3 0  9995
2 52792  49.9934 148.7638 0019533 273.2031  86.6672 14.81595970233182

Traccia GEESAT 1-08 in tempo reale con AllMySat

Download on the App Store